Home   Weather   West Covina   Past weeks

Flag for USA Past Weather in West Covina, California, USA — Yesterday and Last 2 Weeks

Now
54 °F

Overcast.


Feels Like: 54 °F
Forecast: 46 / 66 °F
Wind: No wind

Location: Fullerton Municipal Airport

Current Time: Jan 16, 2017 at 7:25:14 am

Latest Report: Jan 16, 2017 at 6:53 am


Visibility: 10 mi

Pressure: 30.06 "Hg

Humidity: 90%

Dew Point: 51 °F

Location of West CovinaLocation

Past Weather in West Covina — Graph

°F

West Covina Temperature Yesterday

Maximum temperature yesterday: 63 °F (at 11:25 am)
Minimum temperature yesterday: 48 °F (at 6:53 am)
Average temperature yesterday: 56 °F

High & Low Weather Summary for the Past Weeks

 TemperatureHumidityPressure
High77 °F (Jan 8, 1:53 pm)100% (Jan 5, 1:34 am)30.20 "Hg (Jan 5, 1:34 am)
Low42 °F (Jan 1, 5:53 am)29% (Jan 7, 2:53 pm)29.89 "Hg (Jan 1, 5:53 am)
Average57 °F82%30.05 "Hg
* Reported Jan 1 5:53 am — Jan 16 5:53 am, West Covina, Weather by CustomWeather, © 2017

Note: Actual official high and low records may vary slightly from our data, if they occured in-between our weather recording intervals... More about our weather records

Advertising

West Covina Weather History for the Previous 24 Hours

Scroll right to see more
 ConditionsComfort  
Time TempWeatherWind HumidityBarometerVisibility
5:53 am
Mon, Jan 16
54 °FOvercast.No wind90%30.04 "Hg10 mi
4:53 am53 °FOvercast.No wind93%30.03 "Hg10 mi
3:53 am52 °FPassing clouds.No wind93%30.03 "Hg10 mi
3:25 am52 °FPassing clouds.No wind93%30.03 "Hg10 mi
2:53 am53 °FPassing clouds.No wind93%30.04 "Hg10 mi
2:05 am53 °FPassing clouds.No wind93%30.05 "Hg10 mi
12:53 am54 °FOvercast.No wind93%30.05 "Hg10 mi
12:23 am53 °FPassing clouds.No wind93%30.06 "Hg10 mi
11:53 pm
Sun, Jan 15
54 °FPassing clouds.No wind90%30.06 "Hg10 mi
10:53 pm54 °FOvercast.No wind90%30.06 "Hg10 mi
9:53 pm55 °FPassing clouds.No wind90%30.06 "Hg10 mi
8:53 pm54 °FPassing clouds.No wind90%30.06 "Hg10 mi
7:53 pm57 °FPassing clouds.No wind83%30.05 "Hg10 mi
6:53 pm58 °FClear.3 mph81%30.04 "Hg10 mi
5:53 pm59 °FOvercast.No wind81%30.03 "Hg10 mi
4:53 pm60 °FPartly sunny.9 mph72%30.02 "Hg10 mi
3:53 pm61 °FPartly sunny.8 mph72%30.01 "Hg10 mi
2:53 pm63 °FPartly sunny.10 mph70%30.01 "Hg10 mi
1:53 pm63 °FOvercast.5 mph68%30.01 "Hg10 mi
12:53 pm63 °FPartly sunny.7 mph68%30.02 "Hg10 mi
11:53 am63 °FOvercast.6 mph65%30.04 "Hg10 mi
11:25 am63 °FPartly sunny.5 mph65%30.06 "Hg10 mi
11:06 am62 °FPartly sunny.9 mph67%30.07 "Hg10 mi
9:53 am60 °FPartly sunny.8 mph67%30.07 "Hg10 mi
8:53 am56 °FScattered clouds.7 mph75%30.06 "Hg10 mi
8:08 am53 °FPartly sunny.7 mph80%30.05 "Hg10 mi
Weather by CustomWeather, © 2017

See weather overviewHow to use our weather pages